Voltar ao catálogo

THOR ABLESTAR DEB

AtivoLEO
NORAD 246·DEBRIS·🇺🇸 United States

Lançado Jun 29, 1961 de Cape Canaveral Space Force Station

Loading…

Próximas Passagens (próximas 24 horas)

TLE

AtualizadoSource: Space-Track

Época: Sep 7, 2026, 06:45 UTC

1 00246U 61015CB  26250.28126942 -.00000055  00000-0  17569-4 0  9997
2 00246  66.8719 353.6167 0059074  73.7604 286.9961 13.86167816635242

Acompanhe THOR ABLESTAR DEB em tempo real com AllMySat

Download on the App Store